User: anonymous   Login
Location: Fazenda Monte Alegre
(4.8500°S, 38.0333°W)
Time: 03:36:23
(UTC+00:00)
Language:

BLOCK DM-SL R/B - Orbit

View from above orbital plane
View from above orbital plane
View from above satellite
View from above satellite

Ground track
Ground track

The orbit data is extracted from the following two-line orbital elements,

1 28645U 05015B   20336.40538650  .00017293  00000-0  13689-2 0  9992
2 28645   0.3453  67.8676 6766337 198.5173  20.2656  2.98336964154229
Epoch (UTC): 01 December 2020 09:43:45
Eccentricity: 0.6766337
inclination: 0.3453°
perigee height: 213 km
apogee height: 27796 km
right ascension of ascending node: 67.8676°
argument of perigee: 198.5173°
revolutions per day: 2.98336964
mean anomaly at epoch: 20.2656°
orbit number at epoch: 15422

The dashed part of the orbit path shows where the satellite is in the earth's shadow,  

DLR